    Observer details:
    104 San Marcello Pistoiese.  Observers P. Bacci, M. Maestripieri.  Measurers
        P. Bacci, L. Tesi, G. Fagioli.  0.60-m F4 Reflector + CCD.
    130 Lumezzane.  Observers A. Coffano, W. Marinello, M. Micheli, G. Pizzetti,
        A. Soffiantini.  Measurer W. Marinello.  0.40-m f/5.9 reflector + CCD.
    203 GiaGa Observatory.  Observers S. Foglia, G. Galli.  Measurer G. Galli.
        0.36-m f/5.76 Schmidt-Cassegrain + CCD.
    204 Schiaparelli Observatory.  Observer L. Buzzi.  0.84-m f/3.5 reflector +
        CCD.
    654 Table Mountain Observatory, Wrightwood-PHMC.  Observers N. Evans, P. Choi,
        N. Saini, C. Zhai, R. Trahan, M. Shao.  1.0-m Reflector + CCD.
    703 Catalina Sky Survey.  Observer J. K. Hogan.  Measurers E. J. Christensen,
        D. Fay, J. B. Fazekas, D. C. Fuls, A. R. Gibbs, A. D. Grauer, H. Groeller,
        J. K. Hogan, R. A. Kowalski, S. M. Larson, G. J. Leonard, D. Rankin, R. L.
        Seaman, A. Serrano, F. C. Shelly, K. W. Wierzchos.  0.68-m Schmidt + 10K
        CCD.
    858 Tebbutt Observatory, Edgewood.  Observer F. B. Zoltowski.  0.16-m f/7
        0.16-m Refractor + CCD.
    958 Observatoire de Dax.  Observers P. Dupouy, J. B. de Vanssay.  Measurer P.
        Dupouy.  0.43-m f/2.7 Reflector + CCD.
    C43 Hoyerswerda.  Observer P. Lindner.  0.30-m f/6.3 Schmidt-Cassegrain + CCD.
    F51 Pan-STARRS 1, Haleakala.  Observers J. Bulger, T. Lowe, A. Schultz, I.
        Smith.  Measurers K. Chambers, S. Chastel, T. de Boer, J. Fairlamb, H.
        Gao, M. Huber, C.-C. Lin, E. Magnier, Y. Ramanjooloo, R. Wainscoat, R.
        Weryk.  1.8-m Ritchey-Chretien + CCD.
    H21 Astronomical Research Observatory, Westfield.  Observer R. Holmes.
        Measurers T. Linder, R. Holmes, L. Horn.  0.76-m f/3.0 astrograph + CCD.
    H36 Sandlot Observatory, Scranton.  Observer G. Hug.  0.56-m f/4.8 .56 meter
        reflector + CCD.
    I22 Abbey Ridge Observatory, Stillwater Lake.  Observer F. D. Romanov.
        0.355-m f/6.2 Schmidt-Cassegrain + CCD.
    I52 Steward Observatory, Mt. Lemmon Station.  Observer A. Serrano.  Measurers
        E. J. Christensen, D. Fay, J. B. Fazekas, D. C. Fuls, A. R. Gibbs, A. D.
        Grauer, H. Groeller, J. K. Hogan, R. A. Kowalski, S. M. Larson, G. J.
        Leonard, D. Rankin, R. L. Seaman, A. Serrano, F. C. Shelly, K. W.
        Wierzchos.  1.0-m prime focus + CCD.
    I93 St Pardon de Conques.  Observer F. Losse.  0.40-m f/3.7 reflector + CCD.
    K83 Beppe Forti Astronomical Observatory, Montelupo.  Observers M. Tombelli,
        A. Boattini, A. Mazzanti, M. Lombardo, M. Iozzi, T. Bitossi, G.
        Interrante, A. Squilloni, B. Venticinque.  Measurers M. Tombelli, F.
        Bernardi.  0.40-m f/8 Ritchey-Chretien + CCD.
    L01 Visnjan Observatory, Tican.  Observer K. Korlevic.  1.0-m f/2.9 reflector
        + CCD.
    T05 ATLAS-HKO, Haleakala.  Observers L. Denneau, R. Siverd, J. Tonry, H.
        Weiland.  Measurers L. Denneau, N. Erasmus, A. Fitzsimmons, A. Lawrence,
        J. Robinson, R. Siverd, J. Tonry, H. Weiland.  0.5-m Reflector + CCD.
    V21 Cewanee Observatory at DSNM.  Observer D. T. Durig.  0.40 m f/8 Ritchey-
        Chretien + 4656x3520 CCD.
    W34 Squirrel Valley Observatory, Columbus.  Observer R. L. Flynn.  0.36-m
        f/1.9 0.36 Aplanatic Schmidt Cassegrain + CCD.
    Z80 Northolt Branch Observatory.  Observer G. Wells.  Measurers G. Wells, D.
        Bamberger.  0.25-m f/8.0 Ritchey-Chretien + CCD.
    Z99 Clixby Observatory, Cleethorpes.  Observer A. Mickleburgh.  0.356-m f/8
        Schmidt-Cassegrain + CCD.
    
    Orbital elements:
    2022 RZ4                                                 Earth MOID = 0.0679 AU
    Epoch 2022 Aug. 9.0 TT = JDT 2459800.5                  Veres                   
    M 347.39972              (2000.0)            P               Q                  
    n   0.46292622     Peri.  162.50916     +0.95398114     +0.29986656             
    a   1.6549881      Node   180.04245     -0.29554115     +0.94012138             
    e   0.3581190      Incl.   13.66393     -0.05074854     +0.16202420             
    P   2.13           H   23.53          G   0.15           U   7                  
    Residuals in seconds of arc
    220915 703  0.2+  0.0     220916 I93  0.1+  0.0     220916 654  0.0   0.0
    220915 703  1.1-  0.5-    220916 I93  0.4+  0.1-    220916 654  0.1+  0.0
    220915 703  0.5+  0.1+    220916 I93  0.5+  0.1-    220916 I52  0.1-  0.1-
    220915 703  0.0   0.1+    220916 W34  0.3+  0.4-    220916 T05  0.5-  0.7+
    220915 703  1.8-  1.4+    220916 W34  0.2-  0.3-    220916 I52  0.1-  0.2+
    220915 703  0.4+  0.3-    220916 W34  0.2-  0.2-    220916 I52  0.0   0.0
    220915 703  0.4+  0.1-    220916 H36  0.1-  0.3-    220916 I52  0.0   0.0
    220915 104  0.2-  0.2+    220916 H36  0.0   1.3-    220916 654  0.1-  0.1+
    220915 104  0.2+  0.4+    220916 H36  0.1-  0.5-    220916 T05  1.1-  0.8+
    220915 104  0.4+  0.4-    220916 858  0.2-  0.3-    220916 T05  0.4+  0.2-
    220915 203  0.0   0.1-    220916 858  0.3-  0.2-    220916 T05  0.0   0.1+
    220915 203  0.1-  0.1+    220916 H21  0.2-  0.0     220916 F51  0.0   0.1+
    220915 203  0.2+  0.0     220916 H21  0.1-  0.2-    220916 F51  0.1+  0.1+
    220915 L01  0.2+  0.3-    220916 H21  0.1-  0.0     220916 F51  0.1+  0.0
    220915 204  0.1+  0.1-    220916 I22  0.0   0.1+    220916 C43  0.3-  0.4+
    220915 L01  0.1+  0.2-    220916 H21  0.1-  0.3-    220916 C43  0.5-  0.4+
    220915 L01  0.1+  0.1-    220916 I22  0.1+  0.2-    220916 C43  0.7-  0.6+
    220915 L01  0.0   0.1-    220916 858  0.0   0.0     220916 K83  0.5+  0.9-
    220915 L01  0.0   0.0     220916 H21  0.3-  0.1-    220916 C43  0.6-  0.5+
    220915 204  0.3+  0.1+    220916 I22  0.2+  0.0     220916 K83  0.5+  0.7-
    220915 958  0.1+  0.6+    220916 I22  0.4+  0.5-    220916 Z80  0.4-  0.1+
    220915 204  0.1+  0.0     220916 I22  0.1+  0.0     220916 Z99  0.2-  0.1-
    220915 130  0.3-  0.1-    220916 V21  0.0   0.4-    220916 Z99  0.1-  0.0
    220915 130  0.1-  0.1-    220916 V21  0.1+  0.2-    220916 Z99  0.7-  0.0
    220915 958  0.1-  0.7+    220916 V21  0.3-  0.1-    220916 Z80  0.7-  0.2+
    220915 958  0.0   0.0     220916 V21  0.1+  0.3-    220916 Z80  0.5-  0.3+
    
    Ephemeris:
    2022 RZ4                 a,e,i = 1.65, 0.36, 14                  q = 1.0623
    Date    TT    R. A. (2000) Decl.     Delta      r    Elong.  Phase     V
    2022 08 18    19 34 15.7 +50 27 22   0.1608  1.0777   109.9    62.1    21.9
    ...
    2022 09 02    21 14 36.0 +49 43 34   0.1028  1.0628   119.0    56.1    20.8
    ...
    2022 09 10    22 52 07.0 +40 45 00   0.07898 1.0634   133.9    43.1    19.8
    ...
    2022 09 16    00 07 50.7 +25 38 57   0.07092 1.0677   150.3    27.8    19.2
    2022 09 17    00 19 06.3 +22 35 12   0.07076 1.0688   152.9    25.3    19.1
    2022 09 18    00 29 49.6 +19 27 47   0.07098 1.0699   155.3    23.1    19.0
    ...
    2022 09 24    01 22 16.9 +01 41 09   0.07970 1.0786   160.0    18.6    19.2
    ...
    2022 10 02    02 05 07.3 -14 12 29   0.1061  1.0949   150.8    26.5    20.1
    ...
    2022 10 17    02 38 53.7 -25 55 10   0.1760  1.1386   140.8    33.6    21.4
    
    M. P. C. Staff               (C) Copyright 2022 MPC           M.P.E.C. 2022-S05
    


    Read MPEC 2022-S04 Read MPEC 2022-S06


    MPEC number:

    Enter an MPEC number in one of the following forms:

    • 1997-B01 (the full form)
    • J97B01 (the packed version of the full form)
    • B01 (the abbreviated form)